Manistique, MI

9:03 AM EDT on June 24, 2017 (GMT -0400)
Schoolcraft County

Weather History for KISQ - March, 2014

Change the Weather History Date:

Saturday, March 22, 2014

  Actual Average Record
Temperature  
Mean Temperature 18 °F -  
Max Temperature 29 °F 36 °F 57 °F (2012)
Min Temperature 6 °F 19 °F -7 °F (1959)
Degree Days  
Heating Degree Days 47    
Moisture  
Dew Point 11 °F    
Average Humidity 75    
Maximum Humidity 96    
Minimum Humidity 56    
Precipitation  
Precipitation 0.00 in - - ()
Sea Level Pressure  
Sea Level Pressure 30.07 in    
Wind  
Wind Speed 11 mph (NW)    
Max Wind Speed 28 mph    
Max Gust Speed 39 mph    
Visibility 8 miles    
Events Snow    
Averages and records for this station are not official NWS values.
T = Trace of Precipitation, MM = Missing Value Source: NWS Daily Summary

Daily Weather History Graph

Daily Weather History Graph

Search for Another Location

Airport or City:

Trip Planner

Search our weather history database for the weather conditions in past years. The results will help you decide how hot, cold, wet, or windy it might be!

Date:

Astronomy

Mar. 22, 2014 Rise Set
Actual Time 7:43 AM EDT 7:59 PM EDT
Civil Twilight 7:14 AM EDT 8:29 PM EDT
Nautical Twilight 6:38 AM EDT 9:05 PM EDT
Astronomical Twilight 6:02 AM EDT 9:41 PM EDT
Moon 1:33 AM EDT (3/22) 11:11 AM EDT (3/22)
Length of Visible Light 13h 15m
Length of Day
12h 16m
Waning Gibbous, 65% of the Moon is Illuminated
Mar 22
Waning Gibbous
Mar 23
Last Quarter
Mar 30
New
Apr 7
First Quarter
Apr 15
Full

Hourly Weather History & Observations

Time (EDT) Temp. Windchill Dew Point Humidity Pressure Visibility Wind Dir Wind Speed Gust Speed Precip Events Conditions
12:14 AM 28.4 °F 22.2 °F 26.6 °F 93% 29.81 in 2.0 mi NE 5.8 mph - N/A Snow Light Snow
12:35 AM 28.2 °F 23.1 °F 26.6 °F 94% 29.80 in 2.5 mi NNE 4.6 mph - N/A Snow Light Snow
12:55 AM 28.0 °F 24.2 °F 26.4 °F 94% 29.81 in 5.0 mi North 3.5 mph - N/A Snow Light Snow
1:14 AM 27.9 °F 24.0 °F 26.4 °F 94% 29.81 in 4.0 mi NNW 3.5 mph - N/A Snow Light Snow
1:35 AM 27.5 °F 22.2 °F 25.9 °F 94% 29.81 in 3.0 mi NNW 4.6 mph - N/A Snow Light Snow
1:55 AM 27.5 °F 21.1 °F 25.9 °F 94% 29.81 in 5.0 mi NW 5.8 mph - N/A Snow Light Snow
2:14 AM 27.5 °F 20.2 °F 26.1 °F 94% 29.81 in 4.0 mi WNW 6.9 mph - N/A Snow Light Snow
2:35 AM 27.5 °F 18.6 °F 26.2 °F 95% 29.82 in 5.0 mi WNW 9.2 mph - N/A Snow Light Snow
2:55 AM 27.7 °F 21.3 °F 26.6 °F 96% 29.82 in 5.0 mi WNW 5.8 mph - N/A Snow Light Snow
3:15 AM 27.9 °F 21.5 °F 26.6 °F 95% 29.83 in 10.0 mi NW 5.8 mph - N/A   Overcast
3:35 AM 28.2 °F 22.0 °F 26.8 °F 94% 29.83 in 10.0 mi WNW 5.8 mph - N/A Snow Light Snow
3:54 AM 28.2 °F 22.0 °F 27.0 °F 95% 29.83 in 10.0 mi NW 5.8 mph - N/A   Overcast
4:15 AM 28.2 °F 21.0 °F 26.6 °F 94% 29.83 in 10.0 mi WNW 6.9 mph - N/A   Overcast
4:35 AM 28.4 °F 23.3 °F 27.0 °F 94% 29.84 in 10.0 mi West 4.6 mph - N/A Snow Light Snow
4:54 AM 28.4 °F 21.2 °F 27.1 °F 95% 29.85 in 10.0 mi WNW 6.9 mph - N/A Snow Light Snow
5:15 AM 28.8 °F 21.7 °F 27.3 °F 94% 29.85 in 10.0 mi WNW 6.9 mph - N/A   Overcast
5:35 AM 29.1 °F 20.0 °F 27.7 °F 94% 29.86 in 5.0 mi NW 10.4 mph 16.1 mph N/A Snow Light Snow
5:54 AM 28.8 °F 15.2 °F 26.6 °F 92% 29.87 in 4.0 mi NW 21.9 mph 28.8 mph N/A Snow Light Snow
6:15 AM 24.8 °F 12.4 °F 21.2 °F 86% 29.90 in 10.0 mi NW 15.0 mph 25.3 mph N/A   Overcast
6:34 AM 22.5 °F 8.0 °F 18.9 °F 86% 29.91 in 7.0 mi NW 18.4 mph 25.3 mph N/A   Overcast
6:55 AM 21.0 °F 6.6 °F 17.1 °F 85% 29.93 in 5.0 mi NW 17.3 mph 28.8 mph N/A   Overcast
7:15 AM 19.8 °F 2.9 °F 15.6 °F 84% 29.94 in 4.0 mi NW 23.0 mph 31.1 mph N/A   Haze
7:35 AM 19.2 °F 1.9 °F 14.7 °F 83% 29.96 in 5.0 mi NW 24.2 mph 31.1 mph N/A   Overcast
7:55 AM 18.3 °F 2.2 °F 13.3 °F 81% 29.98 in 3.0 mi NW 19.6 mph 31.1 mph N/A Snow Light Snow
8:14 AM 16.9 °F 0.3 °F 11.3 °F 79% 29.99 in 3.0 mi NNW 19.6 mph 29.9 mph N/A   Haze
8:35 AM 16.5 °F -0.1 °F 10.9 °F 79% 30.01 in 3.0 mi NW 19.6 mph 29.9 mph N/A Snow Light Snow
8:54 AM 15.8 °F -1.5 °F 10.2 °F 79% 30.02 in 2.5 mi NW 20.7 mph 32.2 mph N/A Snow Light Snow
9:15 AM 15.6 °F -2.9 °F 9.3 °F 76% 30.03 in 2.0 mi NNW 24.2 mph 34.5 mph N/A Snow Light Snow
9:35 AM 14.7 °F -5.2 °F 8.2 °F 75% 30.04 in 2.0 mi NNW 27.6 mph 36.8 mph N/A Snow Light Snow
9:54 AM 14.5 °F -4.0 °F 7.7 °F 74% 30.05 in 2.0 mi NNW 23.0 mph 31.1 mph N/A Snow Light Snow
10:15 AM 14.5 °F -4.4 °F 7.3 °F 73% 30.07 in 2.0 mi NW 24.2 mph 39.1 mph N/A Snow Light Snow
10:35 AM 14.2 °F -3.2 °F 6.3 °F 71% 30.08 in 4.0 mi NNW 19.6 mph 31.1 mph N/A   Haze
10:54 AM 14.5 °F -3.6 °F 5.9 °F 69% 30.09 in 5.0 mi NNW 21.9 mph 29.9 mph N/A   Haze
11:15 AM 14.7 °F -2.5 °F 5.7 °F 68% 30.10 in 5.0 mi NW 19.6 mph 29.9 mph N/A   Haze
11:35 AM 15.6 °F -2.2 °F 6.3 °F 67% 30.11 in 5.0 mi NNW 21.9 mph 32.2 mph N/A   Haze
11:55 AM 16.2 °F 1.3 °F 6.4 °F 66% 30.12 in 7.0 mi NW 15.0 mph 28.8 mph N/A   Scattered Clouds
12:15 PM 15.8 °F -1.9 °F 5.7 °F 64% 30.13 in 10.0 mi WNW 21.9 mph 28.8 mph N/A   Overcast
12:34 PM 15.6 °F -2.6 °F 5.2 °F 63% 30.14 in 7.0 mi NW 23.0 mph 33.4 mph N/A   Scattered Clouds
12:55 PM 16.2 °F -0.6 °F 5.9 °F 64% 30.15 in 10.0 mi NNW 19.6 mph 26.5 mph N/A   Mostly Cloudy
1:14 PM 16.0 °F 0.6 °F 5.5 °F 63% 30.15 in 7.0 mi NW 16.1 mph 28.8 mph N/A   Overcast
1:35 PM 17.2 °F 0.4 °F 5.0 °F 59% 30.15 in 10.0 mi NW 20.7 mph 29.9 mph N/A   Scattered Clouds
1:54 PM 17.2 °F -0.0 °F 4.8 °F 58% 30.16 in 10.0 mi NNW 21.9 mph 29.9 mph N/A   Scattered Clouds
2:15 PM 17.2 °F 1.2 °F 5.0 °F 59% 30.16 in 10.0 mi NW 18.4 mph 27.6 mph N/A   Scattered Clouds
2:34 PM 17.4 °F 1.5 °F 4.8 °F 58% 30.17 in 10.0 mi NNW 18.4 mph 26.5 mph N/A   Scattered Clouds
2:55 PM 16.7 °F 1.0 °F 5.2 °F 61% 30.18 in 10.0 mi NW 17.3 mph 25.3 mph N/A   Scattered Clouds
3:15 PM 17.2 °F 0.8 °F 4.8 °F 58% 30.18 in 10.0 mi NNW 19.6 mph 27.6 mph N/A   Mostly Cloudy
3:34 PM 17.6 °F 3.2 °F 4.5 °F 56% 30.18 in 10.0 mi NW 15.0 mph 25.3 mph N/A   Mostly Cloudy
3:55 PM 18.7 °F 4.6 °F 5.4 °F 56% 30.19 in 10.0 mi NW 15.0 mph 25.3 mph N/A   Mostly Cloudy
4:14 PM 18.0 °F 3.1 °F 4.6 °F 56% 30.19 in 10.0 mi NW 16.1 mph 25.3 mph N/A   Mostly Cloudy
4:35 PM 18.0 °F 3.1 °F 5.0 °F 57% 30.19 in 10.0 mi NNW 16.1 mph 23.0 mph N/A   Scattered Clouds
4:55 PM 16.9 °F 1.2 °F 4.6 °F 59% 30.19 in 10.0 mi NW 17.3 mph 23.0 mph N/A   Scattered Clouds
5:14 PM 17.2 °F 2.7 °F 5.2 °F 59% 30.20 in 10.0 mi NNW 15.0 mph 23.0 mph N/A   Scattered Clouds
5:35 PM 16.0 °F 1.1 °F 4.8 °F 61% 30.21 in 10.0 mi NNW 15.0 mph 24.2 mph N/A   Mostly Cloudy
5:55 PM 16.0 °F -0.4 °F 5.0 °F 62% 30.21 in 10.0 mi NNW 18.4 mph - N/A   Scattered Clouds
6:14 PM 16.0 °F -0.9 °F 4.6 °F 61% 30.21 in 10.0 mi NNW 19.6 mph 26.5 mph N/A   Scattered Clouds
6:35 PM 14.9 °F -0.8 °F 3.6 °F 61% 30.23 in 10.0 mi NNW 16.1 mph 26.5 mph N/A   Clear
6:54 PM 14.7 °F 0.1 °F 3.9 °F 62% 30.23 in 10.0 mi NNW 13.8 mph - N/A   Clear
7:15 PM 14.4 °F 1.6 °F 3.0 °F 61% 30.24 in 10.0 mi NW 10.4 mph 19.6 mph N/A   Scattered Clouds
7:35 PM 13.1 °F -3.1 °F 2.3 °F 62% 30.25 in 10.0 mi NW 16.1 mph 21.9 mph N/A   Scattered Clouds
7:55 PM 12.0 °F -4.5 °F 2.3 °F 65% 30.26 in 10.0 mi NNW 16.1 mph 23.0 mph N/A   Clear
8:15 PM 11.3 °F -1.3 °F 2.7 °F 68% 30.26 in 10.0 mi NNW 9.2 mph - N/A   Clear
8:34 PM 11.1 °F 0.4 °F 2.8 °F 69% 30.27 in 10.0 mi NNW 6.9 mph - N/A   Clear
8:55 PM 10.4 °F 4.0 °F 2.7 °F 71% 30.28 in 10.0 mi NNW 3.5 mph - N/A   Clear
9:15 PM 9.9 °F 0.2 °F 2.7 °F 73% 30.28 in 10.0 mi NNW 5.8 mph - N/A   Clear
9:34 PM 9.1 °F 0.8 °F 2.3 °F 74% 30.29 in 10.0 mi NNW 4.6 mph - N/A   Scattered Clouds
9:55 PM 8.8 °F 0.4 °F 2.5 °F 76% 30.30 in 10.0 mi NNW 4.6 mph - N/A   Scattered Clouds
10:15 PM 8.2 °F -1.8 °F 2.5 °F 77% 30.30 in 10.0 mi NW 5.8 mph - N/A   Clear
10:35 PM 8.8 °F 2.2 °F 2.3 °F 75% 30.30 in 10.0 mi NW 3.5 mph - N/A   Clear
10:55 PM 8.2 °F -0.3 °F 1.6 °F 74% 30.31 in 10.0 mi NW 4.6 mph - N/A   Scattered Clouds
11:14 PM 7.9 °F -0.7 °F 1.4 °F 75% 30.31 in 10.0 mi NW 4.6 mph - N/A   Clear
11:35 PM 8.1 °F -0.5 °F 1.8 °F 75% 30.31 in 10.0 mi West 4.6 mph - N/A   Mostly Cloudy
11:55 PM 6.3 °F -4.1 °F -0.2 °F 75% 30.31 in 10.0 mi WNW 5.8 mph - N/A   Mostly Cloudy